TimeCST,TemperatureF,Dew PointF,Humidity,Sea Level PressureIn,VisibilityMPH,Wind Direction,Wind SpeedMPH,Gust SpeedMPH,PrecipitationIn,Events,Conditions,WindDirDegrees,DateUTC
12:53 AM,30.9,27.0,85,30.15,10.0,NNW,15.0,-,N/A,,Overcast,340,2014-02-03 06:53:00
1:53 AM,28.9,26.1,89,30.17,4.0,North,17.3,-,N/A,,Overcast,360,2014-02-03 07:53:00
2:53 AM,28.9,26.1,89,30.19,5.0,NNE,12.7,-,N/A,,Overcast,20,2014-02-03 08:53:00
3:53 AM,28.0,25.0,88,30.21,7.0,North,10.4,-,0.00,,Overcast,350,2014-02-03 09:53:00
4:53 AM,28.0,25.0,88,30.22,7.0,North,9.2,-,N/A,,Overcast,360,2014-02-03 10:53:00
5:53 AM,27.0,24.1,89,30.25,6.0,North,10.4,-,N/A,,Overcast,10,2014-02-03 11:53:00
6:53 AM,27.0,24.1,89,30.28,6.0,North,8.1,-,N/A,,Overcast,360,2014-02-03 12:53:00
7:53 AM,26.1,23.0,88,30.31,5.0,North,11.5,-,N/A,,Overcast,10,2014-02-03 13:53:00
8:53 AM,26.1,23.0,88,30.32,5.0,NNE,12.7,-,N/A,,Overcast,20,2014-02-03 14:53:00
9:53 AM,26.1,23.0,88,30.34,4.0,North,6.9,-,N/A,,Overcast,360,2014-02-03 15:53:00
10:53 AM,27.0,23.0,85,30.34,4.0,NNE,6.9,-,N/A,,Overcast,20,2014-02-03 16:53:00
11:53 AM,27.0,24.1,89,30.30,4.0,North,8.1,-,N/A,,Overcast,10,2014-02-03 17:53:00
12:53 PM,28.0,25.0,88,30.28,4.0,NNE,8.1,-,N/A,,Overcast,30,2014-02-03 18:53:00
1:53 PM,28.0,25.0,88,30.28,4.0,NE,4.6,-,N/A,,Overcast,40,2014-02-03 19:53:00
2:53 PM,28.9,26.1,89,30.28,5.0,ENE,4.6,-,N/A,,Overcast,60,2014-02-03 20:53:00
3:05 PM,28.4,26.6,93,30.27,2.5,NNE,9.2,-,N/A,,Overcast,30,2014-02-03 21:05:00
3:53 PM,28.9,27.0,92,30.29,2.5,NE,6.9,-,N/A,,Overcast,50,2014-02-03 21:53:00
4:00 PM,28.4,26.6,93,30.28,5.0,NE,8.1,-,N/A,,Overcast,40,2014-02-03 22:00:00
4:12 PM,28.4,26.6,93,30.28,3.0,NE,6.9,-,N/A,,Overcast,40,2014-02-03 22:12:00
4:53 PM,28.9,26.1,89,30.29,3.0,NE,6.9,-,N/A,,Overcast,40,2014-02-03 22:53:00
5:01 PM,28.4,26.6,93,30.28,2.5,NE,4.6,-,N/A,,Overcast,40,2014-02-03 23:01:00
5:29 PM,28.4,26.6,93,30.28,3.0,ENE,9.2,-,N/A,,Overcast,60,2014-02-03 23:29:00
5:53 PM,30.0,27.0,88,30.29,3.0,ENE,5.8,-,N/A,,Overcast,60,2014-02-03 23:53:00
6:53 PM,28.9,26.1,89,30.29,6.0,NE,10.4,-,N/A,,Overcast,50,2014-02-04 00:53:00
7:53 PM,28.9,26.1,89,30.30,6.0,East,8.1,-,N/A,,Overcast,100,2014-02-04 01:53:00
8:53 PM,28.9,26.1,89,30.30,6.0,NE,10.4,-,N/A,,Overcast,50,2014-02-04 02:53:00
9:53 PM,28.9,27.0,92,30.30,4.0,East,8.1,-,N/A,,Overcast,80,2014-02-04 03:53:00
10:53 PM,28.9,26.1,89,30.26,4.0,ENE,10.4,-,N/A,,Overcast,70,2014-02-04 04:53:00
11:53 PM,28.9,27.0,92,30.24,4.0,East,10.4,-,N/A,,Overcast,80,2014-02-04 05:53:00